FBD763 UWWW-UWKD

Flight info

Callsign FBD763
Flight time 0h 54m
Altitude 16000
Route ODRUT2Z ODRUT T793 TONSI TONSI1T
Aircraft DH8D/M-SDE2E3FGRY/H

Departure

Time 2026-05-07 16:35
Airport Kurumoch International Airport (UWWW)

Arrival

Time 2026-05-07 17:29
Airport Kazan International Airport (UWKD)
Time Latitude Longitude Altitude Speed Heading
2026-05-07 15:55 53.50984 50.15816 424 ft 0 kts 331°
2026-05-07 16:24 53.50984 50.15815 424 ft 0 kts 331°
2026-05-07 16:24 53.50993 50.15808 424 ft 2 kts 331°
2026-05-07 16:24 53.51004 50.15797 424 ft 0 kts 331°
2026-05-07 16:25 53.51036 50.15799 424 ft 8 kts 30°
2026-05-07 16:25 53.51078 50.15904 422 ft 11 kts 59°
2026-05-07 16:25 53.51111 50.16006 422 ft 8 kts 62°
2026-05-07 16:25 53.51138 50.16089 422 ft 7 kts 61°
2026-05-07 16:26 53.51152 50.16190 421 ft 11 kts 108°
2026-05-07 16:26 53.51107 50.16323 418 ft 16 kts 119°
2026-05-07 16:26 53.51038 50.16507 414 ft 20 kts 121°
2026-05-07 16:26 53.50988 50.16642 409 ft 20 kts 121°
2026-05-07 16:27 53.50897 50.16912 404 ft 19 kts 117°
2026-05-07 16:27 53.50795 50.17057 400 ft 20 kts 161°
2026-05-07 16:27 53.50660 50.17138 395 ft 20 kts 159°
2026-05-07 16:27 53.50528 50.17221 390 ft 19 kts 162°
2026-05-07 16:28 53.50401 50.17293 388 ft 18 kts 159°
2026-05-07 16:28 53.50279 50.17368 385 ft 18 kts 160°
2026-05-07 16:28 53.50161 50.17439 383 ft 17 kts 160°
2026-05-07 16:28 53.50052 50.17503 382 ft 16 kts 160°
2026-05-07 16:29 53.49950 50.17564 381 ft 15 kts 160°
2026-05-07 16:29 53.49855 50.17622 381 ft 13 kts 160°
2026-05-07 16:29 53.49753 50.17683 381 ft 16 kts 160°
2026-05-07 16:29 53.49641 50.17750 382 ft 17 kts 160°
2026-05-07 16:30 53.49527 50.17818 384 ft 17 kts 160°
2026-05-07 16:30 53.49413 50.17886 386 ft 17 kts 160°
2026-05-07 16:30 53.49306 50.17974 388 ft 17 kts 131°
2026-05-07 16:30 53.49284 50.18145 386 ft 6 kts 71°
2026-05-07 16:31 53.49284 50.18148 386 ft 0 kts 70°
2026-05-07 16:32 53.49286 50.18155 386 ft 1 kts 70°
2026-05-07 16:33 53.49293 50.18187 385 ft 3 kts 70°
2026-05-07 16:33 53.49307 50.18247 384 ft 8 kts 61°
2026-05-07 16:33 53.49368 50.18325 381 ft 12 kts 14°
2026-05-07 16:33 53.49401 50.18317 380 ft 0 kts 338°
2026-05-07 16:34 53.49401 50.18316 380 ft 0 kts 338°
2026-05-07 16:34 53.49408 50.18312 380 ft 6 kts 338°
2026-05-07 16:34 53.49491 50.18262 380 ft 49 kts 341°
2026-05-07 16:35 53.50102 50.17900 375 ft 128 kts 338°
2026-05-07 16:35 53.51041 50.17341 615 ft 149 kts 343°
2026-05-07 16:35 53.52025 50.16757 1209 ft 152 kts 343°
2026-05-07 16:35 53.53024 50.16175 1800 ft 157 kts 348°
2026-05-07 16:36 53.54094 50.15642 2297 ft 159 kts 349°
2026-05-07 16:36 53.55126 50.15076 2829 ft 160 kts 347°
2026-05-07 16:36 53.56166 50.14445 3310 ft 162 kts 347°
2026-05-07 16:36 53.57230 50.13793 3809 ft 162 kts 347°
2026-05-07 16:37 53.58287 50.13147 4295 ft 164 kts 347°
2026-05-07 16:37 53.59357 50.12492 4779 ft 165 kts 347°
2026-05-07 16:37 53.60499 50.11805 4996 ft 185 kts 347°
2026-05-07 16:37 53.61726 50.11225 5470 ft 188 kts 352°
2026-05-07 16:38 53.63023 50.10733 6013 ft 192 kts 352°
2026-05-07 16:38 53.64329 50.10236 6585 ft 194 kts 352°
2026-05-07 16:38 53.65649 50.09735 7124 ft 194 kts 352°
2026-05-07 16:38 53.66953 50.09239 7621 ft 196 kts 352°
2026-05-07 16:39 53.68282 50.08734 8106 ft 198 kts 352°
2026-05-07 16:39 53.69626 50.08223 8659 ft 199 kts 352°
2026-05-07 16:39 53.70970 50.07711 9153 ft 201 kts 352°
2026-05-07 16:39 53.72348 50.07186 9635 ft 203 kts 352°
2026-05-07 16:40 53.73714 50.06665 10135 ft 205 kts 351°
2026-05-07 16:40 53.75107 50.06134 10599 ft 208 kts 351°
2026-05-07 16:40 53.76591 50.05575 10705 ft 228 kts 351°
2026-05-07 16:40 53.78150 50.04979 11071 ft 234 kts 351°
2026-05-07 16:41 53.79754 50.04362 11504 ft 238 kts 351°
2026-05-07 16:41 53.81355 50.03746 11939 ft 240 kts 351°
2026-05-07 16:41 53.82982 50.03121 12384 ft 243 kts 351°
2026-05-07 16:41 53.84629 50.02487 12850 ft 244 kts 351°
2026-05-07 16:42 53.86280 50.01853 13260 ft 247 kts 351°
2026-05-07 16:42 53.87955 50.01210 13672 ft 249 kts 351°
2026-05-07 16:42 53.89644 50.00560 14092 ft 250 kts 351°
2026-05-07 16:42 53.91349 49.99904 14488 ft 252 kts 351°
2026-05-07 16:43 53.93048 49.99250 14912 ft 253 kts 351°
2026-05-07 16:43 53.94768 49.98587 15296 ft 255 kts 351°
2026-05-07 16:43 53.96478 49.97928 15689 ft 255 kts 351°
2026-05-07 16:43 53.98256 49.97245 15846 ft 266 kts 351°
2026-05-07 16:44 54.00095 49.96540 15904 ft 279 kts 350°
2026-05-07 16:44 54.02029 49.95796 15920 ft 290 kts 350°
2026-05-07 16:44 54.03989 49.95034 15918 ft 291 kts 350°
2026-05-07 16:44 54.05959 49.94266 15913 ft 292 kts 350°
2026-05-07 16:45 54.07956 49.93488 15912 ft 292 kts 349°
2026-05-07 16:45 54.09906 49.92728 15905 ft 288 kts 349°
2026-05-07 16:45 54.11856 49.91964 15906 ft 283 kts 350°
2026-05-07 16:45 54.13754 49.91222 15909 ft 278 kts 349°
2026-05-07 16:46 54.15635 49.90487 15905 ft 274 kts 350°
2026-05-07 16:46 54.17475 49.89770 15907 ft 271 kts 350°
2026-05-07 16:46 54.19295 49.89060 15908 ft 268 kts 350°
2026-05-07 16:46 54.21107 49.88353 15909 ft 265 kts 350°
2026-05-07 16:47 54.22897 49.87655 15910 ft 263 kts 350°
2026-05-07 16:47 54.24667 49.86964 15914 ft 261 kts 350°
2026-05-07 16:47 54.26429 49.86276 15909 ft 259 kts 350°
2026-05-07 16:47 54.28159 49.85600 15915 ft 257 kts 350°
2026-05-07 16:48 54.29913 49.84914 15916 ft 256 kts 349°
2026-05-07 16:48 54.31643 49.84237 15922 ft 255 kts 349°
2026-05-07 16:48 54.33367 49.83564 15925 ft 256 kts 349°
2026-05-07 16:48 54.35098 49.82887 15931 ft 257 kts 349°
2026-05-07 16:49 54.36858 49.82244 15920 ft 257 kts 354°
2026-05-07 16:49 54.38571 49.82676 15923 ft 251 kts 28°
2026-05-07 16:49 54.39759 49.84775 15917 ft 251 kts 64°
2026-05-07 16:49 54.40158 49.87674 15935 ft 253 kts 81°
2026-05-07 16:50 54.40278 49.90709 15928 ft 256 kts 86°
2026-05-07 16:50 54.39857 49.93656 15909 ft 262 kts 119°
2026-05-07 16:50 54.38481 49.95672 15917 ft 267 kts 154°
2026-05-07 16:50 54.36695 49.96560 15922 ft 269 kts 165°
2026-05-07 16:51 54.34880 49.97261 15921 ft 271 kts 165°
2026-05-07 16:51 54.33033 49.97955 15917 ft 273 kts 165°
2026-05-07 16:51 54.31176 49.98645 15917 ft 274 kts 165°
2026-05-07 16:51 54.29261 49.98998 15908 ft 278 kts 183°
2026-05-07 16:52 54.27447 49.98008 15911 ft 278 kts 212°
2026-05-07 16:52 54.26109 49.95697 15911 ft 273 kts 244°
2026-05-07 16:52 54.25738 49.92635 15904 ft 261 kts 281°
2026-05-07 16:52 54.26313 49.89793 15920 ft 253 kts 302°
2026-05-07 16:53 54.27379 49.87498 15906 ft 244 kts 327°
2026-05-07 16:53 54.28827 49.86037 15915 ft 242 kts 341°
2026-05-07 16:53 54.30431 49.85309 15922 ft 239 kts 352°
2026-05-07 16:53 54.32088 49.84823 15921 ft 241 kts 353°
2026-05-07 16:54 54.33745 49.84357 15925 ft 243 kts 353°
2026-05-07 16:54 54.35410 49.83896 15926 ft 245 kts 353°
2026-05-07 16:54 54.37091 49.83435 15923 ft 246 kts 353°
2026-05-07 16:54 54.38777 49.82975 15925 ft 248 kts 353°
2026-05-07 16:55 54.40499 49.82506 15917 ft 249 kts 353°
2026-05-07 16:55 54.42210 49.82041 15921 ft 251 kts 353°
2026-05-07 16:55 54.43922 49.81578 15921 ft 252 kts 353°
2026-05-07 16:55 54.45669 49.81105 15924 ft 253 kts 353°
2026-05-07 16:56 54.47397 49.80637 15918 ft 255 kts 353°
2026-05-07 16:56 54.49162 49.80160 15921 ft 256 kts 353°
2026-05-07 16:56 54.52686 49.79206 15922 ft 258 kts 353°
2026-05-07 16:57 54.54439 49.78731 15924 ft 259 kts 353°
2026-05-07 16:57 54.56219 49.78249 15924 ft 260 kts 353°
2026-05-07 16:57 54.58026 49.77760 15922 ft 262 kts 353°
2026-05-07 16:57 54.59808 49.77276 15925 ft 263 kts 353°
2026-05-07 16:58 54.61616 49.76785 15917 ft 263 kts 353°
2026-05-07 16:58 54.63422 49.76294 15921 ft 264 kts 352°
2026-05-07 16:58 54.65239 49.75800 15922 ft 265 kts 352°
2026-05-07 16:58 54.67074 49.75300 15912 ft 265 kts 352°
2026-05-07 16:59 54.68892 49.74805 15922 ft 266 kts 352°
2026-05-07 16:59 54.70712 49.74309 15917 ft 266 kts 352°
2026-05-07 16:59 54.72548 49.73808 15918 ft 267 kts 352°
2026-05-07 16:59 54.74378 49.73308 15919 ft 267 kts 352°
2026-05-07 17:00 54.76180 49.72657 15928 ft 268 kts 345°
2026-05-07 17:00 54.77944 49.71621 15919 ft 269 kts 342°
2026-05-07 17:00 54.79695 49.70538 15926 ft 269 kts 342°
2026-05-07 17:00 54.81456 49.69450 15928 ft 269 kts 342°
2026-05-07 17:01 54.83212 49.68367 15925 ft 270 kts 342°
2026-05-07 17:01 54.84993 49.67271 15927 ft 270 kts 342°
2026-05-07 17:01 54.86751 49.66190 15926 ft 270 kts 342°
2026-05-07 17:01 54.88513 49.65107 15924 ft 270 kts 342°
2026-05-07 17:02 54.90303 49.64008 15928 ft 271 kts 341°
2026-05-07 17:02 54.92068 49.62923 15931 ft 271 kts 341°
2026-05-07 17:02 54.93835 49.61838 15905 ft 270 kts 341°
2026-05-07 17:02 54.95627 49.60733 15474 ft 277 kts 341°
2026-05-07 17:03 54.97449 49.59610 15017 ft 284 kts 341°
2026-05-07 17:03 54.99342 49.58443 14526 ft 290 kts 341°
2026-05-07 17:03 55.01241 49.57272 14039 ft 295 kts 341°
2026-05-07 17:03 55.03169 49.56083 13550 ft 298 kts 341°
2026-05-07 17:04 55.05114 49.54879 13042 ft 297 kts 341°
2026-05-07 17:04 55.07058 49.53675 12526 ft 296 kts 341°
2026-05-07 17:04 55.08992 49.52478 12026 ft 295 kts 341°
2026-05-07 17:04 55.10940 49.51270 11529 ft 293 kts 341°
2026-05-07 17:05 55.12845 49.50089 11037 ft 292 kts 341°
2026-05-07 17:05 55.14759 49.48900 10539 ft 288 kts 341°
2026-05-07 17:05 55.16657 49.47961 9963 ft 283 kts 355°
2026-05-07 17:05 55.18555 49.48525 9543 ft 274 kts 20°
2026-05-07 17:06 55.20311 49.49791 9093 ft 269 kts 23°
2026-05-07 17:06 55.22022 49.51078 8656 ft 264 kts 23°
2026-05-07 17:06 55.23713 49.52364 8216 ft 259 kts 23°
2026-05-07 17:06 55.25352 49.53611 7800 ft 255 kts 24°
2026-05-07 17:07 55.26984 49.54855 7379 ft 251 kts 24°
2026-05-07 17:07 55.28569 49.56065 7061 ft 244 kts 24°
2026-05-07 17:07 55.30067 49.57207 6958 ft 228 kts 24°
2026-05-07 17:07 55.31478 49.58283 6929 ft 210 kts 23°
2026-05-07 17:08 55.32762 49.59264 6908 ft 191 kts 24°
2026-05-07 17:08 55.33981 49.60203 6920 ft 191 kts 24°
2026-05-07 17:08 55.35218 49.61163 6938 ft 196 kts 24°
2026-05-07 17:08 55.36481 49.62139 6931 ft 200 kts 24°
2026-05-07 17:09 55.37761 49.63126 6935 ft 205 kts 24°
2026-05-07 17:09 55.39083 49.64143 6939 ft 209 kts 24°
2026-05-07 17:09 55.40430 49.65179 6953 ft 213 kts 24°
2026-05-07 17:09 55.41793 49.66227 6950 ft 217 kts 24°
2026-05-07 17:10 55.43176 49.67255 6933 ft 215 kts 19°
2026-05-07 17:10 55.45557 49.66085 6737 ft 213 kts 315°
2026-05-07 17:10 55.46504 49.63957 6290 ft 229 kts 309°
2026-05-07 17:11 55.47443 49.61644 5812 ft 239 kts 308°
2026-05-07 17:11 55.48420 49.59187 5326 ft 248 kts 308°
2026-05-07 17:11 55.49410 49.56674 4837 ft 253 kts 307°
2026-05-07 17:11 55.50393 49.54152 4341 ft 251 kts 307°
2026-05-07 17:12 55.51368 49.51645 3822 ft 249 kts 307°
2026-05-07 17:12 55.52343 49.49138 3317 ft 247 kts 307°
2026-05-07 17:12 55.53304 49.46670 2842 ft 246 kts 307°
2026-05-07 17:12 55.54263 49.44209 2425 ft 239 kts 307°
2026-05-07 17:13 55.55139 49.41951 2500 ft 210 kts 308°
2026-05-07 17:13 55.55821 49.39787 2548 ft 199 kts 291°
2026-05-07 17:13 55.56187 49.37445 2552 ft 199 kts 287°
2026-05-07 17:13 55.56539 49.35083 2561 ft 199 kts 287°
2026-05-07 17:14 55.56763 49.32671 2565 ft 200 kts 270°
2026-05-07 17:14 55.56680 49.30210 2591 ft 200 kts 264°
2026-05-07 17:14 55.56423 49.27779 2586 ft 205 kts 258°
2026-05-07 17:14 55.56099 49.25301 2570 ft 210 kts 257°
2026-05-07 17:15 55.55768 49.22722 2535 ft 215 kts 259°
2026-05-07 17:15 55.55819 49.20128 2473 ft 213 kts 290°
2026-05-07 17:15 55.56556 49.17977 2422 ft 203 kts 309°
2026-05-07 17:15 55.57337 49.15954 2389 ft 196 kts 306°
2026-05-07 17:16 55.58078 49.14003 2372 ft 187 kts 306°
2026-05-07 17:16 55.58771 49.12180 2382 ft 173 kts 307°
2026-05-07 17:16 55.59438 49.10428 2365 ft 168 kts 307°
2026-05-07 17:16 55.60183 49.08959 2348 ft 155 kts 335°
2026-05-07 17:17 55.61170 49.08795 2389 ft 146 kts 25°
2026-05-07 17:17 55.61968 49.10088 2410 ft 168 kts 55°
2026-05-07 17:17 55.62806 49.11581 2370 ft 175 kts 40°
2026-05-07 17:17 55.63744 49.12888 2229 ft 162 kts 40°
2026-05-07 17:18 55.64588 49.14131 1870 ft 153 kts 45°
2026-05-07 17:18 55.65072 49.15637 1571 ft 136 kts 84°
2026-05-07 17:18 55.64800 49.17178 1259 ft 139 kts 126°
2026-05-07 17:18 55.64168 49.18515 1219 ft 141 kts 125°
2026-05-07 17:19 55.63522 49.19871 1002 ft 156 kts 131°
2026-05-07 17:19 55.62815 49.21330 981 ft 151 kts 122°
2026-05-07 17:19 55.62233 49.22836 1147 ft 151 kts 123°
2026-05-07 17:19 55.61635 49.24386 1525 ft 151 kts 120°
2026-05-07 17:20 55.61021 49.25969 1816 ft 159 kts 121°
2026-05-07 17:20 55.60383 49.27503 2321 ft 154 kts 126°
2026-05-07 17:20 55.59685 49.28937 2627 ft 162 kts 129°
2026-05-07 17:20 55.58828 49.30483 2681 ft 183 kts 133°
2026-05-07 17:21 55.57924 49.31942 3161 ft 168 kts 135°
2026-05-07 17:21 55.57039 49.33354 3482 ft 172 kts 135°
2026-05-07 17:21 55.56119 49.34803 3761 ft 182 kts 139°
2026-05-07 17:21 55.54907 49.35650 3887 ft 202 kts 175°
2026-05-07 17:22 55.53517 49.35008 3942 ft 213 kts 212°
2026-05-07 17:22 55.52550 49.33047 3963 ft 216 kts 247°
2026-05-07 17:22 55.52361 49.30450 3969 ft 216 kts 279°
2026-05-07 17:22 55.52662 49.27835 3966 ft 221 kts 284°
2026-05-07 17:23 55.52991 49.25148 3973 ft 227 kts 284°
2026-05-07 17:23 55.53331 49.22404 3974 ft 232 kts 284°
2026-05-07 17:23 55.53683 49.19591 3976 ft 237 kts 284°
2026-05-07 17:23 55.54324 49.16939 3969 ft 237 kts 308°
2026-05-07 17:24 55.55405 49.14748 3976 ft 240 kts 314°
2026-05-07 17:24 55.56532 49.12554 3975 ft 243 kts 314°
2026-05-07 17:24 55.57690 49.10312 3968 ft 246 kts 314°
2026-05-07 17:24 55.58837 49.08077 3757 ft 239 kts 314°
2026-05-07 17:25 55.59936 49.05928 3503 ft 233 kts 314°
2026-05-07 17:25 55.61097 49.04004 3234 ft 224 kts 331°
2026-05-07 17:25 55.62555 49.03309 2966 ft 211 kts
2026-05-07 17:25 55.63883 49.04136 2778 ft 194 kts 40°
2026-05-07 17:26 55.64567 49.05996 2702 ft 177 kts 78°
2026-05-07 17:26 55.64704 49.08197 2697 ft 180 kts 83°
2026-05-07 17:26 55.65000 49.10348 2664 ft 184 kts 72°
2026-05-07 17:26 55.65390 49.12485 2444 ft 179 kts 73°
2026-05-07 17:27 55.65643 49.14546 2109 ft 167 kts 90°
2026-05-07 17:27 55.65223 49.16336 1782 ft 157 kts 121°
2026-05-07 17:27 55.64550 49.17821 1548 ft 153 kts 127°
2026-05-07 17:27 55.63909 49.19299 1167 ft 148 kts 121°
2026-05-07 17:28 55.63371 49.20804 806 ft 142 kts 120°
2026-05-07 17:28 55.62782 49.22257 661 ft 147 kts 123°
2026-05-07 17:28 55.62227 49.23747 556 ft 144 kts 122°
2026-05-07 17:28 55.61673 49.25177 361 ft 136 kts 122°
2026-05-07 17:29 55.61223 49.26340 362 ft 88 kts 123°
2026-05-07 17:29 55.60948 49.27052 374 ft 57 kts 124°
2026-05-07 17:29 55.60761 49.27533 383 ft 39 kts 124°
2026-05-07 17:29 55.60632 49.27867 388 ft 27 kts 125°
2026-05-07 17:30 55.60529 49.28117 392 ft 24 kts 125°
2026-05-07 17:30 55.60431 49.28373 395 ft 22 kts 122°
2026-05-07 17:30 55.60400 49.28575 399 ft 14 kts 51°
2026-05-07 17:30 55.60484 49.28689 400 ft 11 kts 34°
2026-05-07 17:31 55.60492 49.28698 400 ft 0 kts 34°
2026-05-07 17:33 55.60492 49.28699 400 ft 0 kts 34°
2026-05-07 17:33 55.60542 49.28760 401 ft 13 kts 35°
2026-05-07 17:34 55.60580 49.28930 403 ft 18 kts 93°
2026-05-07 17:34 55.60600 49.29150 406 ft 18 kts 51°
2026-05-07 17:34 55.60698 49.29285 410 ft 15 kts 34°
2026-05-07 17:34 55.60792 49.29402 410 ft 14 kts 36°
2026-05-07 17:35 55.60807 49.29485 410 ft 0 kts 109°
2026-05-07 17:35 55.60815 49.29505 410 ft 6 kts 40°
2026-05-07 17:35 55.60857 49.29558 410 ft 4 kts 36°
2026-05-07 17:35 55.60860 49.29562 410 ft 0 kts 35°